Location: Cluj-Napoca
(46.7712°N, 23.6236°E)
Time: 06:31:50
(UTC+02:00)

ISS - Pass Details

Date: 22 February 2020
Orbit: 415 x 423 km, 51.6° (Epoch: 27 February)

Event Time Altitude Azimuth Distance (km) Brightness Sun altitude
Exits shadow 06:06:47 - 205° (SSW) 2,308 -0.2 -13.1°
Reaches altitude 10° 06:09:04 10° 189° (S) 1,494 -1.0 -12.7°
Maximum altitude 06:11:40 21° 138° (SE) 1,001 -1.3 -12.2°
Drops below altitude 10° 06:14:17 10° 87° (E) 1,506 0.6 -11.8°
Sets 06:16:43 0° 71° (ENE) 2,375 1.5 -11.4°
